This is the latest recevied weather packets stored in our database for station/object DG1GMY-10. If no packets are shown the sender has not sent any weather packets the latest 10 day(s).
| Time | Temp. | Humidity | Pressure | Rain* | Wind** | Luminosity | Snow |
|---|---|---|---|---|---|---|---|
| 1788143799 | 18.33° C | 100% | 1017.5 hPa | - | - | - | - |
| 1788140199 | 18.33° C | 100% | 1017 hPa | - | - | - | - |
| 1788136599 | 18.89° C | 100% | 1017 hPa | - | - | - | - |
| 1788132999 | 18.89° C | 100% | 1016.2 hPa | - | - | - | - |
| 1788129398 | 20.56° C | 75% | 1014.9 hPa | - | - | - | - |
| 1788125798 | 21.11° C | 70% | 1015 hPa | - | - | - | - |
| 1788122198 | 20.56° C | 70% | 1015.4 hPa | - | - | - | - |
| 1788118598 | 21.11° C | 67% | 1015.7 hPa | - | - | - | - |
| 1788114998 | 23.33° C | 58% | 1015.5 hPa | - | - | - | - |
| 1788111398 | 28.33° C | 42% | 1015.7 hPa | - | - | - | - |
| 1788107798 | 36.11° C | 29% | 1015.5 hPa | - | - | - | - |
| 1788104198 | 40° C | 25% | 1015.7 hPa | - | - | - | - |
| 1788100598 | 35° C | 35% | 1016.3 hPa | - | - | - | - |
| 1788096997 | 31.11° C | 43% | 1017 hPa | - | - | - | - |
| 1788093397 | 28.33° C | 56% | 1017.6 hPa | - | - | - | - |
| 1788089797 | 25.56° C | 67% | 1018 hPa | - | - | - | - |
| 1788086197 | 23.89° C | 71% | 1018.4 hPa | - | - | - | - |
| 1788082597 | 24.44° C | 70% | 1018.4 hPa | - | - | - | - |
| 1788078997 | 23.33° C | 81% | 1018.5 hPa | - | - | - | - |
| 1788075397 | 21.67° C | 84% | 1018.3 hPa | - | - | - | - |
| 1788071797 | 20° C | 92% | 1017.9 hPa | - | - | - | - |
| 1788068196 | 19.44° C | 94% | 1017.5 hPa | - | - | - | - |
| 1788064596 | 19.44° C | 89% | 1017.3 hPa | - | - | - | - |
| 1788060996 | 18.89° C | 88% | 1017.3 hPa | - | - | - | - |
| 1788057396 | 19.44° C | 89% | 1017.1 hPa | - | - | - | - |
* Rain since midnight (hover to see other rain measurements)
** Current wind speed in m/s (hover to see current wind gust speed)